Terug naar catalogus

STARLINK-32856

ActiefCommunicatieVLEO
NORAD 62819·PAYLOAD·🇺🇸 United States

Gelanceerd Jan 24, 2025 vanaf Vandenberg Space Force Base

Loading…

Volgende Passages (komende 24 uur)

TLE

VersSource: CelesTrak SupGP

Epoch: Sep 15, 2026, 02:47 UTC

1 62819C 25018P   26258.11645833  .00044165  00000+0  13048-2 0  2581
2 62819  53.1560 146.7814 0001338  82.5794 222.2488 15.34369958    11

Volg STARLINK-32856 in realtime met AllMySat

Download on the App Store